Location: Newark
(46.7000°N, 60.6000°W)
Time: 13:44:13
(UTC+00:00)

Altair - Visible Passes

Search period start: 30 October 2020 00:00
Search period end: 09 November 2020 00:00
Orbit: 1502 x 1682 km, 47.2° (Epoch: 29 October)

Date Brightness Start Highest point End Pass type
(mag) Time Alt. Az. Time Alt. Az. Time Alt. Az.
30 Oct 8.8 07:02:36 21° SSE 07:05:54 26° SE 07:13:08 10° E visible
30 Oct 7.8 09:00:40 12° SW 09:09:16 65° SSE 09:18:43 10° ENE visible
31 Oct 8.8 06:39:22 23° SE 06:40:53 24° SE 06:47:46 10° E visible
31 Oct 7.8 08:37:25 20° SW 08:44:09 62° SSE 08:53:30 10° ENE visible
01 Nov 9.0 06:16:02 21° SE 06:16:02 21° SE 06:22:20 10° E visible
01 Nov 7.8 08:14:05 29° SW 08:19:02 59° SSE 08:28:17 10° ENE visible
02 Nov 9.2 05:52:38 18° ESE 05:52:38 18° ESE 05:56:52 10° E visible
02 Nov 7.8 07:50:40 39° SSW 07:53:55 56° SSE 08:03:04 10° ENE visible
02 Nov 7.6 09:48:58 10° W 09:58:20 90° N 10:08:03 10° E visible
03 Nov 9.4 05:29:09 14° ESE 05:29:09 14° ESE 05:31:20 10° E visible
03 Nov 7.8 07:27:12 48° S 07:28:49 53° SE 07:37:51 10° ENE visible
03 Nov 7.5 09:25:14 16° WSW 09:33:08 89° S 09:42:49 10° E visible
04 Nov 9.6 05:05:37 10° E 05:05:37 10° E 05:05:42 10° E visible
04 Nov 7.8 07:03:39 49° SE 07:03:44 49° SE 07:12:38 10° ENE visible
04 Nov 7.5 09:01:42 24° WSW 09:07:57 87° SSE 09:17:35 10° E visible
05 Nov 8.1 06:40:04 44° ESE 06:40:04 44° ESE 06:47:24 10° ENE visible
05 Nov 7.4 08:38:06 35° WSW 08:42:47 86° SSE 08:52:22 10° E visible
06 Nov 8.5 06:16:26 35° ESE 06:16:26 35° ESE 06:22:11 10° ENE visible
06 Nov 7.4 08:14:28 48° WSW 08:17:37 84° SSE 08:27:09 10° ENE visible
06 Nov 7.6 10:13:08 10° W 10:22:30 89° N 10:32:15 10° E visible
07 Nov 8.8 05:52:46 27° E 05:52:46 27° E 05:56:56 10° ENE visible
07 Nov 7.3 07:50:48 65° SW 07:52:27 81° SSE 08:01:56 10° ENE visible
07 Nov 7.5 09:48:49 13° W 09:57:18 88° N 10:07:01 10° E visible
08 Nov 9.2 05:29:05 20° E 05:29:05 20° E 05:31:42 10° ENE visible
08 Nov 7.3 07:27:06 79° S 07:27:17 79° SSE 07:36:44 10° ENE visible
08 Nov 7.5 09:25:08 20° W 09:32:07 87° N 09:41:47 10° E visible
